Regional Weather Roundup
Issued by NWS

Home | Current Version | Previous Version | Graphics & Text | Print | Product List | Glossary On
Versions: 1 2 3 4 5 6 7 8 9 10 11 12 13 14 15 16 17 18 19 20 21 22 23 24 25 26 27 28 29 30 31 32 33 34 35 36 37 38 39 40 41 42 43 44 45 46 47 48 49 50
000
ASUS43 KDMX 051804
RWRIA

WEATHER ROUNDUP FOR IOWA
NATIONAL WEATHER SERVICE DES MOINES IA
  ISSUED BY NWS QUAD CITIES IA IL
1200 PM CST THU MAR 05 2015

NOTE: "FAIR" INDICATES FEW OR NO CLOUDS BELOW 12,000 FEET WITH NO
SIGNIFICANT WEATHER AND/OR OBSTRUCTIONS TO VISIBILITY.

* - THESE STATIONS ARE NOT NWS STATIONS...THUS NOT UNDER NWS
QUALITY CONTROL.  THEY ALSO DO NOT REPORT WEATHER SUCH
AS PRECIPITATION OR FOG.

IAZ001>003-012>014-020>022-031>034-043>046-051900-
   NORTHWEST IOWA

CITY           SKY/WX    TMP DP  RH WIND       PRES   REMARKS
CARROLL *      FAIR      14  -2  48 VRB6G13   30.52F WCI   5
CHEROKEE *     FAIR      13   1  57 S8        30.50F WCI   2
6HR MIN TEMP: -10; 6HR MAX TEMP:  13;

DENNISON *     FAIR      14   0  52 SW7       30.50S WCI   4
LE MARS *      FAIR      18   1  49 VRB7G13   30.48F WCI   8
ORANGE CITY *  FAIR      18   1  49 SW9       30.46S WCI   6
SHELDON *      FAIR      14   0  52 SW9       30.45F WCI   2
SIOUX CITY     FAIR      21   1  41 S12       30.50F WCI   9
6HR MIN TEMP:  -6; 6HR MAX TEMP:  21;

SPENCER        FAIR      13  -2  51 SW10      30.47F WCI   0
6HR MIN TEMP:  -9; 6HR MAX TEMP:  13;

STORM LAKE *   FAIR      10  -2  56 SW7G15    30.48F WCI   0
$$

IAZ055>058-069>071-079>083-090>094-051900-
   SOUTHWEST IOWA

CITY           SKY/WX    TMP DP  RH WIND       PRES   REMARKS
ATLANTIC *     FAIR      18  -2  41 SW5       30.53F WCI  11
AUDUBON *      FAIR      16   0  48 W5        30.52F WCI   9
CLARINDA *     FAIR      18   0  45 CALM      30.58F
COUNCIL BLFS * FAIR      19   1  45 S7        30.51F WCI  10
CRESTON *      FAIR      16  -4  41 NW10      30.54F WCI   3
HARLAN *       FAIR      16  -2  45 CALM      30.56F
LAMONI         FAIR      16   0  49 W9        30.55F WCI   4
6HR MIN TEMP:   2; 6HR MAX TEMP:  16;

RED OAK *      FAIR      19   0  42 VRB5      30.55F WCI  13
SHENANDOAH *   FAIR      19   0  42 VRB5      30.57F WCI  13
$$

IAZ047>049-059>061-072>074-084-051900-
   CENTRAL IOWA

CITY           SKY/WX    TMP DP  RH WIND       PRES   REMARKS
AMES           FAIR       9  -3  58 W6        30.57S WCI  -1
6HR MIN TEMP:  -6; 6HR MAX TEMP:   9;

ANKENY *       FAIR      10  -6  48 NW6       30.58S WCI   1
BOONE *        FAIR      10  -4  52 VRB5      30.53F WCI   2
CHARITON *     FAIR      14  -2  48 VRB5      30.56S WCI   6
DES MOINES     FAIR      14  -4  44 W6        30.57S WCI   5
6HR MIN TEMP:   2; 6HR MAX TEMP:  14;

GRINNELL *     FAIR       7  -4  59 NW6       30.57S WCI  -3
6HR MIN TEMP:  -4; 6HR MAX TEMP:   7;

KNOXVILLE *    FAIR      10  -4  52 VRB5      30.56F WCI   2
MARSHALLTOWN   FAIR       5  -4  66 W8        30.56S WCI  -8
6HR MIN TEMP: -11; 6HR MAX TEMP:   5;

NEWTON *       FAIR       9  -6  52 VRB6      30.57S WCI  -1
PELLA *        FAIR      12   2  63 N8        30.59F WCI   0
6HR MIN TEMP:  -2; 6HR MAX TEMP:  12;

PERRY *          N/A     12   0  57 NW5       30.56S WCI   5
6HR MIN TEMP:  -4; 6HR MAX TEMP:  12;

$$

IAZ004>006-015-016-023>025-035-036-051900-
   NORTH CENTRAL IOWA

CITY           SKY/WX    TMP DP  RH WIND       PRES   REMARKS
ALGONA *       FAIR      10 N/A N/A SW9G17    30.51S WCI  -2
CLARION *      FAIR       9  -2  61 W7        30.53F WCI  -3
ESTHERVILLE    FAIR       9  -2  61 SW10      30.47F WCI  -5
6HR MIN TEMP:  -7; 6HR MAX TEMP:   9;

FORT DODGE *   FAIR       9  -2  61 SW8       30.54S WCI  -4
6HR MIN TEMP:  -8; 6HR MAX TEMP:   9;

MASON CITY     FAIR       6  -4  63 W8        30.52F WCI  -7
6HR MIN TEMP: -13; 6HR MAX TEMP:   6;

FOREST CITY *  FAIR       9  -4  56 W5        30.50F WCI   0
WEBSTER CITY * FAIR       7  -8  51 SW6       30.52F WCI  -3
IOWA FALLS *   FAIR       8  -3  61 W5        30.55  WCI   0
6HR MIN TEMP: -12; 6HR MAX TEMP:   8;

$$

IAZ007>011-017>019-026>030-037>042-050>054-066-051900-
   NORTHEAST IOWA

CITY           SKY/WX    TMP DP  RH WIND       PRES   REMARKS
CEDAR RAPIDS   FAIR       6  -4  63 NW12      30.56S WCI  -9
6HR MIN TEMP:  -9; 6HR MAX TEMP:   7;

CHARLES CITY * FAIR       5  -8  56 W9        30.53F WCI  -9
CLINTON *      FAIR       9  -2  61 NW7       30.58S WCI  -3
6HR MIN TEMP: -11; 6HR MAX TEMP:   9;

DECORAH *      FAIR       5  -9  51 W8G15     30.50S WCI  -8
DUBUQUE        FAIR       8  -5  55 W10       30.51S WCI  -6
6HR MIN TEMP: -12; 6HR MAX TEMP:   8;

MONTICELLO *   FAIR       7  -6  56 W12       30.55S WCI  -9
OELWEIN *      FAIR       5  -6  61 NW5       30.53F WCI  -4
WATERLOO       FAIR       6  -6  57 NW8       30.56S WCI  -7
6HR MIN TEMP:  -9; 6HR MAX TEMP:   7;

$$

IAZ064-065-067-068-078-051900-
   EAST CENTRAL IOWA

CITY           SKY/WX    TMP DP  RH WIND       PRES   REMARKS
DAVENPORT      FAIR       7  -3  64 NW9       30.57R WCI  -7
6HR MIN TEMP:  -8; 6HR MAX TEMP:   7;

IOWA CITY      FAIR       8  -4  58 NW9       30.60S WCI  -5
6HR MIN TEMP:  -2; 6HR MAX TEMP:   8;

MT. PLEASANT * FAIR      11  -4  49 NW9       30.59S WCI  -2
6HR MIN TEMP:   1; 6HR MAX TEMP:  11;

MUSCATINE *    FAIR      10  -2  56 W10       30.61S WCI  -3
QUAD CITIES    FAIR      11  -1  58 W13       30.57R WCI  -4
6HR MIN TEMP:   1; 6HR MAX TEMP:  11;

$$

IAZ062-063-075>077-085>089-095>099-051900-
   SOUTHEAST IOWA

CITY           SKY/WX    TMP DP  RH WIND       PRES   REMARKS
BURLINGTON     FAIR      11  -3  53 NW10      30.58S WCI  -3
6HR MIN TEMP:   2; 6HR MAX TEMP:  11;

FAIRFIELD *    FAIR      10  -4  52 N8G14     30.58F WCI  -1
FORT MADISON * FAIR      10   0  61 NW8       30.59S WCI  -1
KEOKUK *       FAIR      14   0  52 N8G14     30.59R WCI   3
OSKALOOSA *    FAIR      11  -2  57 NW7       30.58F WCI   0
6HR MIN TEMP:  -1; 6HR MAX TEMP:  11;

CENTERVILLE *  FAIR      14   0  52 W9        30.57S WCI   2
OTTUMWA        FAIR      13  -2  51 NW12G20   30.57F WCI  -1
6HR MIN TEMP:   0; 6HR MAX TEMP:  14;

WASHINGTON *   FAIR      10   0  61 NW12G21   30.58F WCI  -4
$$

ABBREVIATIONS USED IN REMARKS
   TC - TEMPERATURES IN CELSIUS
  WCI - WIND CHILL INDEX
   HX - HEAT INDEX
  VSB - VISIBILITY
$$


USA.gov is the U.S. government's official web portal to all federal, state and local government web resources and services.